FENGYUN 3H

Last updated on Sun Dec 14 2025 00:02:24 GMT+0000 (Coordinated Universal Time)

1 65815U 25219A 25347.29254197 .00000179 00000+0 10467-3 0 9991 2 65815 98.6585 286.8709 0000635 93.6644 266.4605 14.19905036 11003
UTC large
Height (km)
Speed (km/s)
/
Latitude / Longitude
Inclination (degrees)
Orbital Period (minutes)
Azimuth
Elevation
Range (km)
Doppler Factor

Next 0 passes for location: London (51.5072 / 0.1276)

Sorry there are no passes over London.